Time,TemperatureF,DewpointF,PressureIn,WindDirection,WindDirectionDegrees,WindSpeedMPH,WindSpeedGustMPH,Humidity,HourlyPrecipIn,Conditions,Clouds,dailyrainin,SoftwareType,DateUTC
2013-01-30 00:02:00,31.1,32.0,28.85,SSW,194,2.2,0.0,48,0.00,,,-99.99,wx200d/1.3,2013-01-30 05:02:00,
2013-01-30 00:04:00,31.1,32.0,28.85,SSW,192,3.1,3.1,48,0.00,,,-99.99,wx200d/1.3,2013-01-30 05:04:00,
2013-01-30 00:10:00,31.1,32.0,28.85,South,172,2.7,5.4,49,0.00,,,-99.99,wx200d/1.3,2013-01-30 05:10:00,
2013-01-30 00:14:00,31.3,32.0,28.85,SW,221,0.0,0.0,49,0.00,,,-99.99,wx200d/1.3,2013-01-30 05:14:00,
2013-01-30 00:20:00,31.3,32.0,28.82,SSE,165,3.1,3.1,50,0.00,,,-99.99,wx200d/1.3,2013-01-30 05:20:00,
2013-01-30 00:26:00,31.5,32.0,28.82,SSW,212,2.7,0.0,51,0.00,,,-99.99,wx200d/1.3,2013-01-30 05:26:00,
2013-01-30 00:32:00,31.5,32.0,28.82,WSW,239,0.0,2.7,51,0.00,,,-99.99,wx200d/1.3,2013-01-30 05:32:00,
2013-01-30 00:38:00,31.6,32.0,28.82,SSW,201,2.2,3.1,51,0.00,,,-99.99,wx200d/1.3,2013-01-30 05:38:00,
2013-01-30 00:44:00,31.6,32.0,28.82,SW,216,0.0,2.2,52,0.00,,,-99.99,wx200d/1.3,2013-01-30 05:44:00,
2013-01-30 00:50:00,31.6,32.0,28.82,WSW,258,2.2,0.0,53,0.00,,,-99.99,wx200d/1.3,2013-01-30 05:50:00,
2013-01-30 00:56:00,31.8,32.0,28.82,SSW,194,4.0,4.0,54,0.00,,,-99.99,wx200d/1.3,2013-01-30 05:56:00,
2013-01-30 01:02:00,31.8,32.0,28.82,SSW,196,2.2,0.0,55,0.00,,,-99.99,wx200d/1.3,2013-01-30 06:02:00,
2013-01-30 01:08:00,32.0,32.0,28.82,WSW,243,0.0,0.0,56,0.00,,,-99.99,wx200d/1.3,2013-01-30 06:08:00,
2013-01-30 01:14:00,32.0,32.0,28.82,SSE,155,2.2,3.1,57,0.00,,,-99.99,wx200d/1.3,2013-01-30 06:14:00,
2013-01-30 01:20:00,32.2,32.0,28.82,WSW,255,5.4,5.8,58,0.00,,,-99.99,wx200d/1.3,2013-01-30 06:20:00,
2013-01-30 01:26:00,32.2,32.0,28.82,SSW,209,3.1,0.0,60,0.00,,,-99.99,wx200d/1.3,2013-01-30 06:26:00,
2013-01-30 01:32:00,32.4,32.0,28.82,WSW,244,4.0,4.0,62,0.00,,,-99.99,wx200d/1.3,2013-01-30 06:32:00,
2013-01-30 01:38:00,32.4,32.0,28.82,SSW,196,3.6,3.6,64,0.00,,,-99.99,wx200d/1.3,2013-01-30 06:38:00,
2013-01-30 01:44:00,32.4,32.0,28.82,SW,223,3.6,4.9,65,0.00,,,-99.99,wx200d/1.3,2013-01-30 06:44:00,
2013-01-30 01:50:00,32.4,32.0,28.82,West,274,3.1,3.1,66,0.00,,,-99.99,wx200d/1.3,2013-01-30 06:50:00,
2013-01-30 01:56:00,32.5,32.0,28.82,South,186,2.2,2.2,67,0.00,,,-99.99,wx200d/1.3,2013-01-30 06:56:00,
2013-01-30 02:02:00,32.5,32.0,28.79,SW,230,0.0,3.6,68,0.00,,,-99.99,wx200d/1.3,2013-01-30 07:02:00,
2013-01-30 02:08:00,32.5,32.0,28.79,SW,224,0.0,2.2,68,0.00,,,-99.99,wx200d/1.3,2013-01-30 07:08:00,
2013-01-30 02:14:00,32.5,32.0,28.79,SSW,201,3.1,3.1,68,0.00,,,-99.99,wx200d/1.3,2013-01-30 07:14:00,
2013-01-30 02:20:00,32.5,32.0,28.79,SSW,201,0.0,2.7,69,0.00,,,-99.99,wx200d/1.3,2013-01-30 07:20:00,
2013-01-30 02:26:00,32.5,32.0,28.79,South,190,2.7,2.7,69,0.00,,,-99.99,wx200d/1.3,2013-01-30 07:26:00,
2013-01-30 02:32:00,32.5,32.0,28.79,SSW,195,2.2,0.0,69,0.00,,,-99.99,wx200d/1.3,2013-01-30 07:32:00,
2013-01-30 02:38:00,32.5,32.0,28.79,SSW,198,3.6,4.0,70,0.00,,,-99.99,wx200d/1.3,2013-01-30 07:38:00,
2013-01-30 02:44:00,32.5,32.0,28.79,South,174,4.0,4.0,70,0.00,,,-99.99,wx200d/1.3,2013-01-30 07:44:00,
2013-01-30 02:50:00,32.5,32.0,28.76,SSW,211,2.7,3.6,71,0.00,,,-99.99,wx200d/1.3,2013-01-30 07:50:00,
2013-01-30 02:56:00,32.5,32.0,28.76,South,189,2.7,3.6,71,0.00,,,-99.99,wx200d/1.3,2013-01-30 07:56:00,
2013-01-30 03:02:00,32.7,32.0,28.76,SSW,197,2.7,4.0,71,0.00,,,-99.99,wx200d/1.3,2013-01-30 08:02:00,
2013-01-30 03:08:00,32.7,32.0,28.76,SSW,206,4.0,4.0,72,0.00,,,-99.99,wx200d/1.3,2013-01-30 08:08:00,
2013-01-30 03:14:00,32.7,32.0,28.76,SSE,168,0.0,3.6,72,0.00,,,-99.99,wx200d/1.3,2013-01-30 08:14:00,
2013-01-30 03:20:00,32.7,32.0,28.76,SSW,210,3.1,0.0,72,0.00,,,-99.99,wx200d/1.3,2013-01-30 08:20:00,
2013-01-30 03:26:00,32.9,32.0,28.76,SW,222,2.2,2.7,72,0.00,,,-99.99,wx200d/1.3,2013-01-30 08:26:00,
2013-01-30 03:32:00,32.9,32.0,28.76,SSW,210,0.0,3.1,73,0.00,,,-99.99,wx200d/1.3,2013-01-30 08:32:00,
2013-01-30 03:38:00,32.9,32.0,28.76,South,190,2.2,4.0,73,0.00,,,-99.99,wx200d/1.3,2013-01-30 08:38:00,
2013-01-30 03:44:00,32.9,32.0,28.76,South,184,3.6,3.6,73,0.00,,,-99.99,wx200d/1.3,2013-01-30 08:44:00,
2013-01-30 03:50:00,33.1,32.0,28.73,SSW,211,2.7,4.0,73,0.00,,,-99.99,wx200d/1.3,2013-01-30 08:50:00,
2013-01-30 03:56:00,33.1,32.0,28.73,SW,236,2.2,2.7,73,0.00,,,-99.99,wx200d/1.3,2013-01-30 08:56:00,
2013-01-30 04:02:00,33.1,32.0,28.73,South,182,0.0,4.0,73,0.00,,,-99.99,wx200d/1.3,2013-01-30 09:02:00,
2013-01-30 04:08:00,33.1,32.0,28.73,South,190,3.6,3.6,74,0.00,,,-99.99,wx200d/1.3,2013-01-30 09:08:00,
2013-01-30 04:14:00,33.3,32.0,28.73,SSW,196,2.2,3.6,74,0.00,,,-99.99,wx200d/1.3,2013-01-30 09:14:00,
2013-01-30 04:20:00,33.3,32.0,28.73,South,177,3.1,3.6,74,0.00,,,-99.99,wx200d/1.3,2013-01-30 09:20:00,
2013-01-30 04:26:00,33.3,32.0,28.73,SSE,164,2.2,0.0,74,0.00,,,-99.99,wx200d/1.3,2013-01-30 09:26:00,
2013-01-30 04:32:00,33.3,32.0,28.70,South,184,3.1,0.0,74,0.00,,,-99.99,wx200d/1.3,2013-01-30 09:32:00,
2013-01-30 04:38:00,33.3,32.0,28.70,South,181,2.7,4.9,74,0.00,,,-99.99,wx200d/1.3,2013-01-30 09:38:00,
2013-01-30 04:44:00,33.4,32.0,28.70,SW,217,2.2,2.2,74,0.00,,,-99.99,wx200d/1.3,2013-01-30 09:44:00,
2013-01-30 04:50:00,33.6,32.0,28.70,South,173,0.0,2.2,75,0.00,,,-99.99,wx200d/1.3,2013-01-30 09:50:00,
2013-01-30 04:56:00,33.6,32.0,28.70,South,179,3.6,3.6,75,0.00,,,-99.99,wx200d/1.3,2013-01-30 09:56:00,
2013-01-30 05:02:00,33.8,32.0,28.70,South,180,4.5,0.0,75,0.00,,,-99.99,wx200d/1.3,2013-01-30 10:02:00,
2013-01-30 05:08:00,33.8,32.0,28.70,SSW,199,0.0,0.0,75,0.00,,,-99.99,wx200d/1.3,2013-01-30 10:08:00,
2013-01-30 05:14:00,33.6,32.0,28.70,SE,144,0.0,0.0,75,0.00,,,-99.99,wx200d/1.3,2013-01-30 10:14:00,
2013-01-30 05:20:00,33.8,32.0,28.70,South,174,3.1,4.9,75,0.00,,,-99.99,wx200d/1.3,2013-01-30 10:20:00,
2013-01-30 05:26:00,33.8,32.0,28.70,South,169,0.0,5.4,75,0.00,,,-99.99,wx200d/1.3,2013-01-30 10:26:00,
2013-01-30 05:32:00,34.3,32.0,28.67,ESE,117,3.1,3.1,75,0.00,,,-99.99,wx200d/1.3,2013-01-30 10:32:00,
2013-01-30 05:38:00,34.3,32.0,28.67,ESE,110,3.1,4.0,75,0.00,,,-99.99,wx200d/1.3,2013-01-30 10:38:00,
2013-01-30 05:44:00,34.5,32.0,28.67,SSW,209,0.0,2.7,75,0.00,,,-99.99,wx200d/1.3,2013-01-30 10:44:00,
2013-01-30 05:50:00,34.7,32.0,28.70,South,189,0.0,0.0,76,0.00,,,-99.99,wx200d/1.3,2013-01-30 10:50:00,
2013-01-30 05:56:00,34.5,32.0,28.70,SSW,207,0.0,4.9,75,0.00,,,-99.99,wx200d/1.3,2013-01-30 10:56:00,
2013-01-30 06:02:00,34.9,32.0,28.67,South,176,3.1,0.0,76,0.00,,,-99.99,wx200d/1.3,2013-01-30 11:02:00,
2013-01-30 06:08:00,34.9,32.0,28.67,ESE,117,3.1,0.0,76,0.00,,,-99.99,wx200d/1.3,2013-01-30 11:08:00,
2013-01-30 06:14:00,34.9,32.0,28.67,SSE,167,2.2,5.8,76,0.00,,,-99.99,wx200d/1.3,2013-01-30 11:14:00,
2013-01-30 06:20:00,35.1,32.0,28.67,South,172,3.1,3.1,76,0.00,,,-99.99,wx200d/1.3,2013-01-30 11:20:00,
2013-01-30 06:26:00,35.1,32.0,28.67,SSE,161,0.0,4.9,76,0.00,,,-99.99,wx200d/1.3,2013-01-30 11:26:00,
2013-01-30 06:32:00,35.4,32.0,28.67,SW,227,0.0,0.0,76,0.00,,,-99.99,wx200d/1.3,2013-01-30 11:32:00,
2013-01-30 06:38:00,35.4,32.0,28.67,SE,136,0.0,0.0,76,0.00,,,-99.99,wx200d/1.3,2013-01-30 11:38:00,
2013-01-30 06:44:00,35.1,32.0,28.67,SE,137,0.0,0.0,76,0.00,,,-99.99,wx200d/1.3,2013-01-30 11:44:00,
2013-01-30 06:50:00,35.2,32.0,28.67,SSW,202,0.0,3.1,76,0.00,,,-99.99,wx200d/1.3,2013-01-30 11:50:00,
2013-01-30 06:56:00,36.0,32.0,28.67,WSW,239,2.7,0.0,76,0.00,,,-99.99,wx200d/1.3,2013-01-30 11:56:00,
2013-01-30 07:02:00,36.1,32.0,28.67,South,186,0.0,3.1,76,0.00,,,-99.99,wx200d/1.3,2013-01-30 12:02:00,
2013-01-30 07:08:00,36.1,32.0,28.67,SSW,202,0.0,0.0,76,0.00,,,-99.99,wx200d/1.3,2013-01-30 12:08:00,
2013-01-30 07:14:00,36.1,32.0,28.67,South,191,0.0,0.0,76,0.00,,,-99.99,wx200d/1.3,2013-01-30 12:14:00,
2013-01-30 07:20:00,36.3,32.0,28.64,West,264,0.0,0.0,76,0.00,,,-99.99,wx200d/1.3,2013-01-30 12:20:00,
2013-01-30 07:26:00,36.7,32.0,28.64,South,188,0.0,3.6,77,0.00,,,-99.99,wx200d/1.3,2013-01-30 12:26:00,
2013-01-30 07:32:00,37.4,32.0,28.64,South,184,2.2,5.4,77,0.00,,,-99.99,wx200d/1.3,2013-01-30 12:32:00,
2013-01-30 07:38:00,37.8,32.0,28.64,South,175,2.7,5.4,77,0.00,,,-99.99,wx200d/1.3,2013-01-30 12:38:00,
2013-01-30 07:44:00,37.9,32.0,28.64,South,180,4.0,4.0,77,0.00,,,-99.99,wx200d/1.3,2013-01-30 12:44:00,
2013-01-30 07:50:00,37.9,32.0,28.64,WSW,243,2.7,2.7,77,0.00,,,-99.99,wx200d/1.3,2013-01-30 12:50:00,
2013-01-30 07:56:00,37.9,32.0,28.64,WNW,286,4.5,4.5,77,0.00,,,-99.99,wx200d/1.3,2013-01-30 12:56:00,
2013-01-30 08:02:00,37.9,32.0,28.64,South,179,4.5,5.4,77,0.00,,,-99.99,wx200d/1.3,2013-01-30 13:02:00,
2013-01-30 08:08:00,38.1,32.0,28.64,South,184,2.2,4.0,78,0.16,,,-99.99,wx200d/1.3,2013-01-30 13:08:00,
2013-01-30 08:14:00,38.1,32.0,28.64,West,261,2.7,2.7,78,0.16,,,-99.99,wx200d/1.3,2013-01-30 13:14:00,
2013-01-30 08:20:00,38.3,32.0,28.61,SSW,195,4.0,4.0,78,0.16,,,-99.99,wx200d/1.3,2013-01-30 13:20:00,
2013-01-30 08:26:00,38.5,32.0,28.61,SSW,204,4.9,7.6,78,0.16,,,-99.99,wx200d/1.3,2013-01-30 13:26:00,
2013-01-30 08:32:00,38.7,32.0,28.61,South,177,0.0,4.0,78,0.16,,,-99.99,wx200d/1.3,2013-01-30 13:32:00,
2013-01-30 08:38:00,38.7,32.0,28.61,West,260,4.5,6.3,78,0.16,,,-99.99,wx200d/1.3,2013-01-30 13:38:00,
2013-01-30 08:44:00,39.2,34.0,28.61,South,191,4.0,4.0,79,0.16,,,-99.99,wx200d/1.3,2013-01-30 13:44:00,
2013-01-30 08:50:00,39.9,34.0,28.61,South,180,2.2,2.7,80,0.16,,,-99.99,wx200d/1.3,2013-01-30 13:50:00,
2013-01-30 08:56:00,40.3,36.0,28.61,SSW,198,4.0,4.0,80,0.16,,,-99.99,wx200d/1.3,2013-01-30 13:56:00,
2013-01-30 09:02:00,41.2,36.0,28.61,West,261,4.5,4.5,81,0.16,,,-99.99,wx200d/1.3,2013-01-30 14:02:00,
2013-01-30 09:08:00,41.5,36.0,28.61,WSW,242,4.0,4.0,82,0.16,,,-99.99,wx200d/1.3,2013-01-30 14:08:00,
2013-01-30 09:14:00,42.1,37.0,28.61,SSE,167,5.4,5.4,83,0.16,,,-99.99,wx200d/1.3,2013-01-30 14:14:00,
2013-01-30 09:20:00,42.6,37.0,28.59,SSW,213,4.0,6.3,83,0.16,,,-99.99,wx200d/1.3,2013-01-30 14:20:00,
2013-01-30 09:26:00,43.2,39.0,28.59,ENE,77,4.5,4.5,84,0.16,,,-99.99,wx200d/1.3,2013-01-30 14:26:00,
2013-01-30 09:32:00,43.5,39.0,28.59,South,184,4.5,4.9,84,0.16,,,-99.99,wx200d/1.3,2013-01-30 14:32:00,
2013-01-30 09:38:00,44.2,41.0,28.59,SW,219,4.9,4.9,84,0.16,,,-99.99,wx200d/1.3,2013-01-30 14:38:00,
2013-01-30 09:44:00,44.8,41.0,28.59,SSE,161,4.5,4.9,84,0.16,,,-99.99,wx200d/1.3,2013-01-30 14:44:00,
2013-01-30 09:50:00,45.0,41.0,28.59,SSW,194,6.7,6.7,85,0.16,,,-99.99,wx200d/1.3,2013-01-30 14:50:00,
2013-01-30 09:56:00,45.1,41.0,28.59,West,261,4.9,4.9,85,0.16,,,-99.99,wx200d/1.3,2013-01-30 14:56:00,
2013-01-30 10:02:00,45.5,43.0,28.59,SSW,201,5.8,5.8,85,0.16,,,-99.99,wx200d/1.3,2013-01-30 15:02:00,
2013-01-30 10:08:00,45.9,43.0,28.59,WSW,245,4.5,0.0,85,0.16,,,-99.99,wx200d/1.3,2013-01-30 15:08:00,
2013-01-30 10:14:00,46.4,43.0,28.59,West,267,7.6,8.3,85,0.16,,,-99.99,wx200d/1.3,2013-01-30 15:14:00,
2013-01-30 10:20:00,46.2,43.0,28.56,SSW,192,4.5,6.7,86,0.16,,,-99.99,wx200d/1.3,2013-01-30 15:20:00,
2013-01-30 10:26:00,46.4,43.0,28.56,WSW,243,3.1,3.6,85,0.16,,,-99.99,wx200d/1.3,2013-01-30 15:26:00,
2013-01-30 10:32:00,46.4,43.0,28.56,SSW,196,3.1,3.1,85,0.16,,,-99.99,wx200d/1.3,2013-01-30 15:32:00,
2013-01-30 10:38:00,46.6,43.0,28.56,SSW,213,0.0,0.0,85,0.16,,,-99.99,wx200d/1.3,2013-01-30 15:38:00,
2013-01-30 10:44:00,46.6,43.0,28.56,SW,227,4.5,6.3,85,0.16,,,-99.99,wx200d/1.3,2013-01-30 15:44:00,
2013-01-30 10:50:00,46.4,43.0,28.56,South,189,2.2,4.9,86,0.16,,,-99.99,wx200d/1.3,2013-01-30 15:50:00,
2013-01-30 10:56:00,46.0,43.0,28.56,South,183,2.7,5.4,86,0.16,,,-99.99,wx200d/1.3,2013-01-30 15:56:00,
2013-01-30 11:02:00,46.4,43.0,28.53,South,181,0.0,2.7,86,0.16,,,-99.99,wx200d/1.3,2013-01-30 16:02:00,
2013-01-30 11:08:00,46.8,43.0,28.53,SE,131,3.1,0.0,86,0.16,,,-99.99,wx200d/1.3,2013-01-30 16:08:00,
2013-01-30 11:14:00,46.4,43.0,28.53,South,176,2.7,3.1,86,0.16,,,-99.99,wx200d/1.3,2013-01-30 16:14:00,
2013-01-30 11:20:00,46.4,43.0,28.53,South,170,2.7,3.6,86,0.16,,,-99.99,wx200d/1.3,2013-01-30 16:20:00,
2013-01-30 11:26:00,46.8,43.0,28.53,South,191,3.6,3.6,86,0.16,,,-99.99,wx200d/1.3,2013-01-30 16:26:00,
2013-01-30 11:32:00,47.3,45.0,28.50,SSE,161,7.6,7.6,86,0.16,,,-99.99,wx200d/1.3,2013-01-30 16:32:00,
2013-01-30 11:38:00,47.5,45.0,28.50,WSW,249,3.1,3.1,86,0.00,,,-99.99,wx200d/1.3,2013-01-30 16:38:00,
2013-01-30 11:44:00,47.8,45.0,28.50,SW,223,4.0,8.1,86,0.00,,,-99.99,wx200d/1.3,2013-01-30 16:44:00,
2013-01-30 11:50:00,47.7,45.0,28.50,West,270,0.0,3.1,86,0.00,,,-99.99,wx200d/1.3,2013-01-30 16:50:00,
2013-01-30 11:56:00,47.5,45.0,28.50,SSW,205,0.0,6.3,86,0.00,,,-99.99,wx200d/1.3,2013-01-30 16:56:00,
2013-01-30 12:02:00,47.7,45.0,28.50,SSE,167,4.9,8.1,86,0.00,,,-99.99,wx200d/1.3,2013-01-30 17:02:00,
2013-01-30 12:08:00,47.8,45.0,28.50,South,169,3.6,3.6,86,0.00,,,-99.99,wx200d/1.3,2013-01-30 17:08:00,
2013-01-30 12:14:00,48.2,45.0,28.50,WSW,246,4.0,5.4,86,0.00,,,-99.99,wx200d/1.3,2013-01-30 17:14:00,
2013-01-30 12:20:00,48.2,45.0,28.47,SW,222,0.0,0.0,86,0.00,,,-99.99,wx200d/1.3,2013-01-30 17:20:00,
2013-01-30 12:26:00,47.5,45.0,28.47,SSW,195,0.0,0.0,86,0.00,,,-99.99,wx200d/1.3,2013-01-30 17:26:00,
2013-01-30 12:32:00,47.7,45.0,28.47,SW,217,2.2,0.0,86,0.00,,,-99.99,wx200d/1.3,2013-01-30 17:32:00,
2013-01-30 12:38:00,47.8,45.0,28.47,South,184,0.0,2.7,86,0.00,,,-99.99,wx200d/1.3,2013-01-30 17:38:00,
2013-01-30 12:44:00,48.0,45.0,28.47,SSE,165,0.0,4.0,86,0.00,,,-99.99,wx200d/1.3,2013-01-30 17:44:00,
2013-01-30 12:50:00,48.0,45.0,28.44,SSE,165,0.0,0.0,86,0.00,,,-99.99,wx200d/1.3,2013-01-30 17:50:00,
2013-01-30 12:56:00,47.8,45.0,28.44,WSW,244,4.0,5.4,86,0.00,,,-99.99,wx200d/1.3,2013-01-30 17:56:00,
2013-01-30 13:02:00,48.7,45.0,28.44,SW,214,4.0,5.4,86,0.00,,,-99.99,wx200d/1.3,2013-01-30 18:02:00,
2013-01-30 13:08:00,48.7,45.0,28.44,SSW,207,5.4,5.4,86,0.00,,,-99.99,wx200d/1.3,2013-01-30 18:08:00,
2013-01-30 13:14:00,48.7,45.0,28.44,SSW,196,7.6,8.1,86,0.00,,,-99.99,wx200d/1.3,2013-01-30 18:14:00,
2013-01-30 13:20:00,48.7,45.0,28.44,SSE,164,5.8,8.7,86,0.00,,,-99.99,wx200d/1.3,2013-01-30 18:20:00,
2013-01-30 13:26:00,48.6,45.0,28.44,SSE,158,3.6,3.6,86,0.00,,,-99.99,wx200d/1.3,2013-01-30 18:26:00,
2013-01-30 13:32:00,48.6,45.0,28.44,West,275,6.7,6.7,86,0.00,,,-99.99,wx200d/1.3,2013-01-30 18:32:00,
2013-01-30 13:38:00,48.2,45.0,28.44,South,184,7.2,10.1,85,0.00,,,-99.99,wx200d/1.3,2013-01-30 18:38:00,
2013-01-30 13:44:00,48.4,45.0,28.44,SSW,200,5.4,5.4,86,0.00,,,-99.99,wx200d/1.3,2013-01-30 18:44:00,
2013-01-30 13:50:00,48.2,45.0,28.41,West,260,6.7,6.7,86,0.00,,,-99.99,wx200d/1.3,2013-01-30 18:50:00,
2013-01-30 13:56:00,48.2,45.0,28.41,WSW,253,4.5,4.5,86,0.00,,,-99.99,wx200d/1.3,2013-01-30 18:56:00,
2013-01-30 14:02:00,48.6,45.0,28.41,South,179,8.7,8.7,86,0.00,,,-99.99,wx200d/1.3,2013-01-30 19:02:00,
2013-01-30 14:08:00,48.6,45.0,28.41,SSW,199,5.8,5.8,86,0.00,,,-99.99,wx200d/1.3,2013-01-30 19:08:00,
2013-01-30 14:14:00,48.7,45.0,28.41,West,280,10.1,10.1,86,0.00,,,-99.99,wx200d/1.3,2013-01-30 19:14:00,
2013-01-30 14:20:00,49.1,46.0,28.41,SSW,193,7.6,10.1,86,0.00,,,-99.99,wx200d/1.3,2013-01-30 19:20:00,
2013-01-30 14:26:00,49.1,46.0,28.41,SSE,160,7.2,7.6,86,0.00,,,-99.99,wx200d/1.3,2013-01-30 19:26:00,
2013-01-30 14:32:00,49.5,46.0,28.41,South,180,5.8,6.3,86,0.00,,,-99.99,wx200d/1.3,2013-01-30 19:32:00,
2013-01-30 14:38:00,49.6,46.0,28.41,South,183,4.9,7.6,86,0.00,,,-99.99,wx200d/1.3,2013-01-30 19:38:00,
2013-01-30 14:44:00,49.8,46.0,28.41,SSW,208,5.4,5.4,86,0.00,,,-99.99,wx200d/1.3,2013-01-30 19:44:00,
2013-01-30 14:50:00,50.2,46.0,28.38,WSW,240,6.7,6.7,85,0.00,,,-99.99,wx200d/1.3,2013-01-30 19:50:00,
2013-01-30 14:56:00,50.2,46.0,28.38,WSW,250,6.3,8.3,85,0.00,,,-99.99,wx200d/1.3,2013-01-30 19:56:00,
2013-01-30 15:02:00,50.4,46.0,28.38,SW,236,4.5,8.1,85,0.00,,,-99.99,wx200d/1.3,2013-01-30 20:02:00,
2013-01-30 15:08:00,50.5,46.0,28.38,SSE,168,8.7,8.7,85,0.00,,,-99.99,wx200d/1.3,2013-01-30 20:08:00,
2013-01-30 15:14:00,50.7,46.0,28.38,SW,225,7.6,7.6,85,0.00,,,-99.99,wx200d/1.3,2013-01-30 20:14:00,
2013-01-30 15:20:00,50.9,48.0,28.38,WNW,282,11.4,11.9,85,0.00,,,-99.99,wx200d/1.3,2013-01-30 20:20:00,
2013-01-30 15:26:00,51.1,48.0,28.38,SSW,194,3.6,5.8,85,0.00,,,-99.99,wx200d/1.3,2013-01-30 20:26:00,
2013-01-30 15:32:00,51.1,48.0,28.38,WSW,238,8.3,8.3,85,0.00,,,-99.99,wx200d/1.3,2013-01-30 20:32:00,
2013-01-30 15:38:00,51.1,48.0,28.38,South,184,7.2,14.5,85,0.00,,,-99.99,wx200d/1.3,2013-01-30 20:38:00,
2013-01-30 15:44:00,50.9,48.0,28.38,SSW,194,5.4,11.0,85,0.00,,,-99.99,wx200d/1.3,2013-01-30 20:44:00,
2013-01-30 15:50:00,51.4,48.0,28.35,SSE,156,7.6,9.6,85,0.00,,,-99.99,wx200d/1.3,2013-01-30 20:50:00,
2013-01-30 15:56:00,51.6,48.0,28.35,SW,220,8.1,8.1,85,0.00,,,-99.99,wx200d/1.3,2013-01-30 20:56:00,
2013-01-30 16:02:00,52.0,48.0,28.38,WNW,289,10.5,10.5,85,0.00,,,-99.99,wx200d/1.3,2013-01-30 21:02:00,
2013-01-30 16:08:00,52.0,48.0,28.38,SSW,196,5.8,6.3,85,0.00,,,-99.99,wx200d/1.3,2013-01-30 21:08:00,
2013-01-30 16:14:00,52.0,48.0,28.38,South,169,6.3,7.6,85,0.00,,,-99.99,wx200d/1.3,2013-01-30 21:14:00,
2013-01-30 16:20:00,52.3,48.0,28.38,South,170,8.3,8.3,85,0.00,,,-99.99,wx200d/1.3,2013-01-30 21:20:00,
2013-01-30 16:26:00,52.5,48.0,28.38,South,182,8.3,8.3,85,0.00,,,-99.99,wx200d/1.3,2013-01-30 21:26:00,
2013-01-30 16:32:00,52.3,48.0,28.38,West,266,7.2,7.2,85,0.00,,,-99.99,wx200d/1.3,2013-01-30 21:32:00,
2013-01-30 16:38:00,52.3,48.0,28.38,WNW,295,8.1,8.1,85,0.00,,,-99.99,wx200d/1.3,2013-01-30 21:38:00,
2013-01-30 16:44:00,52.7,50.0,28.38,South,186,10.5,10.5,85,0.00,,,-99.99,wx200d/1.3,2013-01-30 21:44:00,
2013-01-30 16:50:00,52.7,50.0,28.35,South,189,8.3,8.3,85,0.00,,,-99.99,wx200d/1.3,2013-01-30 21:50:00,
2013-01-30 16:56:00,52.7,50.0,28.35,South,171,10.5,14.5,85,0.00,,,-99.99,wx200d/1.3,2013-01-30 21:56:00,
2013-01-30 17:02:00,52.7,48.0,28.35,South,183,7.2,7.6,84,0.00,,,-99.99,wx200d/1.3,2013-01-30 22:02:00,
2013-01-30 17:08:00,52.7,48.0,28.35,WSW,248,8.3,8.3,84,0.00,,,-99.99,wx200d/1.3,2013-01-30 22:08:00,
2013-01-30 17:14:00,52.9,48.0,28.35,SSE,163,5.4,5.4,84,0.00,,,-99.99,wx200d/1.3,2013-01-30 22:14:00,
2013-01-30 17:20:00,52.9,48.0,28.35,SW,236,4.9,16.8,84,0.00,,,-99.99,wx200d/1.3,2013-01-30 22:20:00,
2013-01-30 17:26:00,53.2,48.0,28.35,SSE,165,9.6,13.6,84,0.00,,,-99.99,wx200d/1.3,2013-01-30 22:26:00,
2013-01-30 17:32:00,53.2,48.0,28.35,South,179,4.5,12.3,84,0.00,,,-99.99,wx200d/1.3,2013-01-30 22:32:00,
2013-01-30 17:38:00,53.4,48.0,28.35,SW,232,6.7,11.0,84,0.00,,,-99.99,wx200d/1.3,2013-01-30 22:38:00,
2013-01-30 17:44:00,53.6,48.0,28.35,SSW,211,5.4,5.8,84,0.00,,,-99.99,wx200d/1.3,2013-01-30 22:44:00,
2013-01-30 17:50:00,53.6,48.0,28.35,South,173,4.5,4.5,84,0.00,,,-99.99,wx200d/1.3,2013-01-30 22:50:00,
2013-01-30 17:56:00,53.6,48.0,28.35,South,171,7.6,8.1,84,0.00,,,-99.99,wx200d/1.3,2013-01-30 22:56:00,
2013-01-30 18:02:00,54.0,48.0,28.35,SSE,154,7.2,11.0,84,0.00,,,-99.99,wx200d/1.3,2013-01-30 23:02:00,
2013-01-30 18:08:00,53.8,48.0,28.35,SSW,205,8.3,8.3,84,0.00,,,-99.99,wx200d/1.3,2013-01-30 23:08:00,
2013-01-30 18:14:00,54.1,48.0,28.35,West,278,8.3,8.7,84,0.00,,,-99.99,wx200d/1.3,2013-01-30 23:14:00,
2013-01-30 18:20:00,54.1,48.0,28.35,WSW,243,11.0,11.0,84,0.00,,,-99.99,wx200d/1.3,2013-01-30 23:20:00,
2013-01-30 18:26:00,54.1,48.0,28.35,SSW,203,6.7,8.1,84,0.00,,,-99.99,wx200d/1.3,2013-01-30 23:26:00,
2013-01-30 18:32:00,54.1,48.0,28.32,SSW,207,9.2,9.2,84,0.00,,,-99.99,wx200d/1.3,2013-01-30 23:32:00,
2013-01-30 18:38:00,54.0,48.0,28.32,West,275,7.2,7.6,84,0.00,,,-99.99,wx200d/1.3,2013-01-30 23:38:00,
2013-01-30 18:44:00,53.8,48.0,28.32,West,280,5.8,7.6,84,0.00,,,-99.99,wx200d/1.3,2013-01-30 23:44:00,
2013-01-30 18:50:00,53.8,48.0,28.32,West,264,6.3,10.5,84,0.00,,,-99.99,wx200d/1.3,2013-01-30 23:50:00,
2013-01-30 18:56:00,54.0,48.0,28.32,WNW,289,6.3,10.1,84,0.00,,,-99.99,wx200d/1.3,2013-01-30 23:56:00,
2013-01-30 19:02:00,53.6,48.0,28.35,SSW,199,5.8,8.1,84,0.00,,,-99.99,wx200d/1.3,2013-01-31 00:02:00,
2013-01-30 19:08:00,53.8,48.0,28.35,SW,226,6.3,6.3,84,0.00,,,-99.99,wx200d/1.3,2013-01-31 00:08:00,
2013-01-30 19:14:00,54.0,48.0,28.35,West,277,10.5,10.5,84,0.00,,,-99.99,wx200d/1.3,2013-01-31 00:14:00,
2013-01-30 19:20:00,54.0,48.0,28.32,South,182,8.3,8.3,84,0.00,,,-99.99,wx200d/1.3,2013-01-31 00:20:00,
2013-01-30 19:26:00,54.0,48.0,28.32,SSW,198,8.3,13.2,84,0.00,,,-99.99,wx200d/1.3,2013-01-31 00:26:00,
2013-01-30 19:32:00,53.8,48.0,28.32,West,279,9.2,10.1,83,0.00,,,-99.99,wx200d/1.3,2013-01-31 00:32:00,
2013-01-30 19:38:00,53.6,48.0,28.32,SSE,166,8.3,10.5,83,0.00,,,-99.99,wx200d/1.3,2013-01-31 00:38:00,
2013-01-30 19:44:00,53.2,48.0,28.32,South,177,5.4,5.4,84,0.00,,,-99.99,wx200d/1.3,2013-01-31 00:44:00,
2013-01-30 19:50:00,53.2,48.0,28.32,West,270,6.7,8.7,84,0.00,,,-99.99,wx200d/1.3,2013-01-31 00:50:00,
2013-01-30 19:56:00,53.2,48.0,28.32,South,171,9.2,9.2,84,0.00,,,-99.99,wx200d/1.3,2013-01-31 00:56:00,
2013-01-30 20:02:00,53.1,48.0,28.35,WSW,239,8.7,8.7,84,0.00,,,-99.99,wx200d/1.3,2013-01-31 01:02:00,
2013-01-30 20:08:00,53.1,48.0,28.35,WSW,241,6.7,6.7,84,0.00,,,-99.99,wx200d/1.3,2013-01-31 01:08:00,
2013-01-30 20:14:00,53.1,48.0,28.35,SSW,206,6.7,8.1,84,0.00,,,-99.99,wx200d/1.3,2013-01-31 01:14:00,
2013-01-30 20:20:00,52.9,48.0,28.32,West,271,7.2,7.2,84,0.00,,,-99.99,wx200d/1.3,2013-01-31 01:20:00,
2013-01-30 20:26:00,52.7,48.0,28.32,WSW,238,9.2,9.2,84,0.00,,,-99.99,wx200d/1.3,2013-01-31 01:26:00,
2013-01-30 20:32:00,52.7,48.0,28.32,South,185,8.3,8.3,84,0.00,,,-99.99,wx200d/1.3,2013-01-31 01:32:00,
2013-01-30 20:38:00,52.7,48.0,28.32,South,184,9.6,9.6,83,0.00,,,-99.99,wx200d/1.3,2013-01-31 01:38:00,
2013-01-30 20:44:00,52.7,48.0,28.32,South,177,4.5,5.4,83,0.00,,,-99.99,wx200d/1.3,2013-01-31 01:44:00,
2013-01-30 20:50:00,52.7,48.0,28.32,SW,236,8.7,8.7,83,0.00,,,-99.99,wx200d/1.3,2013-01-31 01:50:00,
2013-01-30 20:56:00,52.7,48.0,28.32,WNW,284,8.1,8.1,83,0.00,,,-99.99,wx200d/1.3,2013-01-31 01:56:00,
2013-01-30 21:02:00,52.7,48.0,28.29,WSW,248,8.3,8.3,83,0.00,,,-99.99,wx200d/1.3,2013-01-31 02:02:00,
2013-01-30 21:08:00,52.7,48.0,28.29,West,276,6.3,6.3,83,0.00,,,-99.99,wx200d/1.3,2013-01-31 02:08:00,
2013-01-30 21:14:00,52.7,48.0,28.29,SW,231,4.9,8.7,83,0.00,,,-99.99,wx200d/1.3,2013-01-31 02:14:00,
2013-01-30 21:20:00,52.5,46.0,28.29,SSW,211,4.5,5.8,83,0.00,,,-99.99,wx200d/1.3,2013-01-31 02:20:00,
2013-01-30 21:26:00,52.2,46.0,28.29,West,267,3.6,4.0,83,0.00,,,-99.99,wx200d/1.3,2013-01-31 02:26:00,
2013-01-30 21:32:00,52.3,46.0,28.29,WSW,254,7.6,8.1,83,0.00,,,-99.99,wx200d/1.3,2013-01-31 02:32:00,
2013-01-30 21:38:00,52.3,46.0,28.29,SW,216,4.9,7.6,83,0.00,,,-99.99,wx200d/1.3,2013-01-31 02:38:00,
2013-01-30 21:44:00,52.2,46.0,28.29,WSW,237,4.5,4.5,83,0.00,,,-99.99,wx200d/1.3,2013-01-31 02:44:00,
2013-01-30 21:50:00,52.0,46.0,28.29,WSW,251,6.7,6.7,83,0.00,,,-99.99,wx200d/1.3,2013-01-31 02:50:00,
2013-01-30 21:56:00,52.0,46.0,28.29,South,179,6.3,6.3,83,0.00,,,-99.99,wx200d/1.3,2013-01-31 02:56:00,
2013-01-30 22:02:00,52.0,46.0,28.29,SW,221,7.6,8.7,83,0.00,,,-99.99,wx200d/1.3,2013-01-31 03:02:00,
2013-01-30 22:08:00,51.8,46.0,28.29,West,265,4.0,5.8,83,0.00,,,-99.99,wx200d/1.3,2013-01-31 03:08:00,
2013-01-30 22:14:00,51.8,46.0,28.29,South,182,6.3,6.3,83,0.00,,,-99.99,wx200d/1.3,2013-01-31 03:14:00,
2013-01-30 22:20:00,51.8,46.0,28.29,WNW,288,6.3,6.3,83,0.00,,,-99.99,wx200d/1.3,2013-01-31 03:20:00,
2013-01-30 22:26:00,51.8,46.0,28.29,South,174,4.5,10.1,83,0.00,,,-99.99,wx200d/1.3,2013-01-31 03:26:00,
2013-01-30 22:32:00,51.6,46.0,28.29,SE,139,5.4,5.4,83,0.00,,,-99.99,wx200d/1.3,2013-01-31 03:32:00,
2013-01-30 22:38:00,51.8,46.0,28.29,South,174,0.0,4.0,83,0.00,,,-99.99,wx200d/1.3,2013-01-31 03:38:00,
2013-01-30 22:44:00,51.8,46.0,28.29,SSW,195,5.8,5.8,83,0.00,,,-99.99,wx200d/1.3,2013-01-31 03:44:00,
2013-01-30 22:50:00,51.6,46.0,28.26,SSW,209,5.4,6.3,83,0.00,,,-99.99,wx200d/1.3,2013-01-31 03:50:00,
2013-01-30 22:56:00,51.8,46.0,28.26,South,171,4.0,0.0,83,0.00,,,-99.99,wx200d/1.3,2013-01-31 03:56:00,
2013-01-30 23:02:00,51.6,46.0,28.26,SSW,203,3.1,4.0,83,0.00,,,-99.99,wx200d/1.3,2013-01-31 04:02:00,
2013-01-30 23:08:00,51.6,46.0,28.26,South,177,4.0,4.0,83,0.00,,,-99.99,wx200d/1.3,2013-01-31 04:08:00,
2013-01-30 23:14:00,51.6,46.0,28.26,WSW,246,2.2,5.4,83,0.00,,,-99.99,wx200d/1.3,2013-01-31 04:14:00,
2013-01-30 23:20:00,51.3,46.0,28.23,SSE,160,0.0,2.7,83,0.00,,,-99.99,wx200d/1.3,2013-01-31 04:20:00,
2013-01-30 23:26:00,51.1,46.0,28.23,SSE,164,3.1,0.0,83,0.00,,,-99.99,wx200d/1.3,2013-01-31 04:26:00,
2013-01-30 23:32:00,50.7,45.0,28.23,SSE,167,0.0,0.0,83,0.00,,,-99.99,wx200d/1.3,2013-01-31 04:32:00,
2013-01-30 23:38:00,50.7,45.0,28.23,South,182,0.0,5.8,83,0.00,,,-99.99,wx200d/1.3,2013-01-31 04:38:00,
2013-01-30 23:44:00,51.1,46.0,28.23,SSW,200,2.7,0.0,83,0.00,,,-99.99,wx200d/1.3,2013-01-31 04:44:00,
2013-01-30 23:50:00,51.8,46.0,28.20,SSE,149,6.7,6.7,82,0.00,,,-99.99,wx200d/1.3,2013-01-31 04:50:00,
2013-01-30 23:56:00,52.5,46.0,28.20,WSW,243,8.1,8.7,82,0.00,,,-99.99,wx200d/1.3,2013-01-31 04:56:00,